| time (UTC) | temp F | wind direction | speed knots | gust knots | rain 1hr in | rain 24hr in | rain mn in | humidity % | barometer mb |
| 20260505041554 | 72 | 193 | 10.4 | 17.4 | 0.00 | 0.00 | 0.00 | 26 | 947.7 |
| 20260505034553 | 73 | 153 | 5.2 | 15.6 | 0.00 | 0.00 | 0.00 | 25 | 947.7 |
| 20260505033052 | 73 | 147 | 12.2 | 17.4 | 0.00 | 0.00 | 0.00 | 25 | 947.5 |
| 20260505031558 | 74 | 124 | 7.0 | 15.6 | 0.00 | 0.00 | 0.00 | 25 | 947.3 |
| 20260505030057 | 74 | 150 | 12.2 | 20.0 | 0.00 | 0.00 | 0.00 | 24 | 947.0 |
| 20260505024553 | 74 | 171 | 11.3 | 18.2 | 0.00 | 0.00 | 0.00 | 24 | 946.8 |
| 20260505023051 | 75 | 143 | 10.4 | 18.2 | 0.00 | 0.00 | 0.00 | 26 | 946.7 |
| 20260505021550 | 76 | 147 | 10.4 | 17.4 | 0.00 | 0.00 | 0.00 | 26 | 946.7 |
| 20260505020051 | 76 | 163 | 9.6 | 18.2 | 0.00 | 0.00 | 0.00 | 26 | 946.8 |
| 20260505014602 | 77 | 149 | 7.8 | 13.9 | 0.00 | 0.00 | 0.00 | 26 | 946.8 |
| 20260505013047 | 76 | 182 | 7.8 | 18.2 | 0.00 | 0.00 | 0.00 | 27 | 946.8 |
| 20260505011551 | 77 | 155 | 8.7 | 16.5 | 0.00 | 0.00 | 0.00 | 26 | 946.8 |
| 20260505010045 | 76 | 169 | 8.7 | 13.9 | 0.00 | 0.00 | 0.00 | 27 | 946.9 |
| 20260505004545 | 77 | 170 | 10.4 | 14.8 | 0.00 | 0.00 | 0.00 | 27 | 947.0 |
| 20260505003044 | 77 | 201 | 8.7 | 13.9 | 0.00 | 0.00 | 0.00 | 27 | 947.1 |
| 20260505001546 | 77 | 8.7 | 17.4 | 0.00 | 0.00 | 0.00 | 25 | 947.3 | |
| 20260505000047 | 77 | 7.0 | 16.5 | 0.00 | 0.00 | 0.00 | 26 | 947.2 | |
| 20260504234542 | 77 | 8.7 | 15.6 | 0.00 | 0.00 | 0.00 | 23 | 947.2 | |
| 20260504233042 | 77 | 8.7 | 17.4 | 0.00 | 0.00 | 0.00 | 22 | 947.3 | |
| 20260504231541 | 77 | 179 | 7.8 | 15.6 | 0.00 | 0.00 | 0.00 | 25 | 947.5 |
| 20260504230046 | 77 | 189 | 7.0 | 18.2 | 0.00 | 0.00 | 0.00 | 25 | 947.6 |
| 20260504224546 | 77 | 145 | 8.7 | 18.2 | 0.00 | 0.00 | 0.00 | 28 | 947.7 |
| 20260504223039 | 76 | 136 | 11.3 | 19.1 | 0.00 | 0.00 | 0.00 | 29 | 948.0 |
| 20260504221539 | 76 | 8.7 | 15.6 | 0.00 | 0.00 | 0.00 | 28 | 948.0 | |
| 20260504220037 | 76 | 11.3 | 19.1 | 0.00 | 0.00 | 0.00 | 29 | 948.4 | |
| 20260504214536 | 76 | 12.2 | 18.2 | 0.00 | 0.00 | 0.00 | 27 | 948.5 | |
| 20260504213035 | 76 | 11.3 | 19.1 | 0.00 | 0.00 | 0.00 | 28 | 948.6 | |
| 20260504211535 | 76 | 11.3 | 17.4 | 0.00 | 0.00 | 0.00 | 26 | 948.8 | |
| 20260504210046 | 76 | 9.6 | 18.2 | 0.00 | 0.00 | 0.00 | 27 | 948.9 | |
| 20260504204551 | 76 | 11.3 | 18.2 | 0.00 | 0.00 | 0.00 | 28 | 949.1 | |
| 20260504203034 | 76 | 11.3 | 19.1 | 0.00 | 0.00 | 0.00 | 27 | 949.1 | |
| 20260504201532 | 76 | 13.0 | 20.0 | 0.00 | 0.00 | 0.00 | 28 | 949.1 | |
| 20260504200031 | 75 | 13.0 | 19.1 | 0.00 | 0.00 | 0.00 | 28 | 949.2 | |
| 20260504194531 | 75 | 10.4 | 20.0 | 0.00 | 0.00 | 0.00 | 29 | 949.4 | |
| 20260504193030 | 74 | 165 | 11.3 | 20.0 | 0.00 | 0.00 | 0.00 | 30 | 949.4 |
| 20260504191531 | 74 | 178 | 11.3 | 18.2 | 0.00 | 0.00 | 0.00 | 30 | 949.5 |
| 20260504190028 | 73 | 182 | 11.3 | 20.9 | 0.00 | 0.00 | 0.00 | 31 | 949.7 |
| 20260504184528 | 73 | 221 | 9.6 | 18.2 | 0.00 | 0.00 | 0.00 | 32 | 949.6 |
| 20260504183027 | 72 | 186 | 10.4 | 20.0 | 0.00 | 0.00 | 0.00 | 33 | 949.8 |
| 20260504181527 | 73 | 200 | 8.7 | 20.0 | 0.00 | 0.00 | 0.00 | 33 | 950.0 |
| 20260504180025 | 73 | 197 | 11.3 | 19.1 | 0.00 | 0.00 | 0.00 | 33 | 949.8 |
| 20260504174524 | 72 | 8.7 | 16.5 | 0.00 | 0.00 | 0.00 | 33 | 949.9 | |
| 20260504173023 | 72 | 11.3 | 18.2 | 0.00 | 0.00 | 0.00 | 33 | 949.5 | |
| 20260504171522 | 72 | 10.4 | 18.2 | 0.00 | 0.00 | 0.00 | 32 | 949.5 | |
| 20260504081509 | 79 | 221 | 11.3 | 18.2 | 0.00 | 0.00 | 0.00 | 25 | 946.2 |
| 20260504044543 | 85 | 153 | 8.7 | 20.9 | 0.00 | 0.00 | 0.00 | 19 | 944.6 |
| 20260504043048 | 86 | 209 | 8.7 | 17.4 | 0.00 | 0.00 | 0.00 | 19 | 944.5 |